sat.trackr.live / text

‹ back to catalog

STARLINK-35694

NORAD 66389 · 2025-257K

PAYLOAD ACTIVE UNKNOWN

§ Identity

Operator
Country
US
Launch date
2025-11-09
Launch site
AFETR
Launch vehicle
Mass (kg)
RCS (m²)

Purposes: comms

External: N2YO · Heavens-Above · Gunter

§ Orbital elements

Epoch: 2026-09-20T13:42:13.959360Z

Period
93.85 min
Inclination
53.1596°
Eccentricity
0.0000793
Mean motion
15.34405805 rev/d
Perigee alt
462.1 km
Apogee alt
463.2 km
Semi-major
6,840.8 km
B*
6.8324e-4
RAAN
29.4827°
Arg perigee
120.2124°
Mean anomaly
239.8958°
Rev number
4,960

§ Raw data

STARLINK-356941 66389U 25257K   26263.57099490  .00022783  00000+0  68324-3 0  99922 66389  53.1596  29.4827 0000793 120.2124 239.8958 15.34405805 49604

JSON: /api/v1/satellites/66389 · /tle

For live sub-satellite position, see the globe view (requires WebGL).

§ Visibility from observer

Set your observer location to see the next 7 days of passes ≥ 10°. The values pass through the URL so the page stays shareable.

No JS? Fill the form by hand. The geolocation button needs JavaScript.